www.pogodaiklimat.ru

Погода и климат >> Архив погоды >> Россия >> Архангельская область >> Малые Кармакулы


АРХИВ ПОГОДЫ в Малых Кармакулах

Время (UTC), дата Ветер
(напр.,м/с)
 
Видим.   Явления Облачность Т
(С)
Тd
(С)
f
(%)
Тe
(С)
Тes
(С)
Комфортность P
(гПа)
Po
(гПа)
Тmin
(С)
Tmax
(С)
R
(мм)
R24
(мм)
S
(см)
06 19.06 С 7
{11}
20 км 10/10 700 м
[Cu Sc]
+1.0 -0.4 90 -6 -6 1002.3 1000.5
09 19.06 С 6 20 км в посл. час ливневой снег 10/8 600 м
[Cu Sc Ac und]
+0.9 +0.1 94 -6 -5 1002.5 1000.7
12 19.06 С 6
{11}
20 км {ливн. осадки} 9/8 630 м
[Cu Sc Ac trans]
+0.9 -0.5 90 -6 -5 1003.3 1001.5
15 19.06 С 6
{11}
20 км 8/4 300 м
[Cu med, cong Ac trans Ci fib]
+1.0 -0.7 88 -5 -5 1003.4 1001.6 +1.3 0.0
18 19.06 С 6 20 км 9/9 660 м
[Cu Sc]
+1.0 -1.0 86 -5 -5 1002.9 1001.1
21 19.06 С 6 20 км 9/9 600 м
[Cu Sc]
+0.6 -1.4 86 -6 -6 1002.2 1000.4
00 20.06 С 5 20 км 9/8 630 м
[Cu Sc Ac trans]
+0.6 -0.8 90 -5 -5 1002.1 1000.3
03 20.06 СЗ 5 20 км 9/8 700 м
[Cu Sc Ac trans]
+1.1 -0.3 90 -5 -5 1001.3 999.5 +0.5
06 20.06 СЗ 7 20 км 9/4 600 м
[Sc Ac trans]
+1.3 -0.7 87 -5 -5 1000.8 999.0
09 20.06 СЗ 8
{11}
20 км 10/8 300 м
[Cu Sc Ac und]
+1.4 -1.1 83 -6 -6 1000.5 998.7
12 20.06 СЗ 9
{13}
4000 м слаб. ливневой снег 10/10 270 м
[Cb cap]
+0.6 -0.2 94 -7 -7 1000.1 998.3
15 20.06 СЗ 10
{13}
4000 м слаб. ливневой снег 10/10 240 м
[Cb cap]
+0.6 +0.1 96 -8 -8 998.9 997.1 +1.4 0.4
18 20.06 З 12
{15}
4000 м слаб. ливневой снег 10/10 210 м
[Cb cap]
+0.8 +0.3 96 -8 -8 996.8 995.0
21 20.06 З 9
{14}
4000 м слаб. ливневой снег 10/10 210 м
[Cb cap]
+0.6 -0.2 94 -7 -7 995.5 993.7
00 21.06 СЗ 9
{13}
4000 м слаб. ливневой снег 10/10 240 м
[Cb cap]
+0.9 +0.1 94 -7 -7 995.6 993.8
03 21.06 СЗ 9
{12}
4000 м слаб. ливневой снег 10/10 210 м
[Cb cap]
+0.7 +0.1 96 -7 -7 995.7 993.9 +0.6 1
06 21.06 СЗ 9
{13}
4000 м слаб. ливневой дождь 10/10 210 м
[Cb cap]
+1.4 +0.9 96 -6 -6 997.1 995.3
09 21.06 СЗ 7
{11}
4000 м дымка {ливн. осадки} 10/10 210 м
[St]
+1.7 +1.2 96 -5 -5 999.2 997.4
12 21.06 СЗ 6
{11}
20 км {ливн. осадки} 10/10 500 м
[Sc]
+1.7 +0.6 92 -5 -5 1001.8 1000.0
15 21.06 С 7
{11}
20 км 10/10 500 м
[Sc]
+1.6 +0.2 90 -5 -5 1003.5 1001.7 +1.8 0.3
18 21.06 СЗ 6
{11}
20 км {ливн. осадки} 10/10 540 м
[Cu Sc]
+1.5 -0.2 88 -5 -5 1003.9 1002.1
21 21.06 СЗ 7
{11}
20 км в посл. час ливневой дождь 10/10 600 м
[Cu Sc]
+1.0 -0.4 90 -6 -6 1004.3 1002.5
00 22.06 З 6
{11}
20 км {ливн. осадки} 10/9 630 м
[Cu Sc Ac und]
+1.0 -0.1 92 -5 -5 1004.2 1002.4
03 22.06 СЗ 7
{11}
20 км 10/8 660 м
[Cu Sc Ac und]
+1.4 -0.3 88 -5 -5 1004.4 1002.6 +1.0 0.1
06 22.06 СЗ 7
{11}
20 км 10/6 300 м
[Cu Sc Ac und]
+1.8 +0.7 92 -5 -5 1004.5 1002.7
09 22.06 СЗ 6
{10}
20 км {ливн. осадки} 10/4 300 м
[Cu Sc Ac und]
+1.4 0.0 90 -5 -4 1004.8 1003.0
12 22.06 СЗ 8
{11}
4000 м слаб. ливневой снег 10/4 300 м
[Cb cap Ac und]
+1.8 +0.2 89 -5 -5 1005.3 1003.5
15 22.06 СЗ 8
{11}
10 км слаб. ливневой дождь 10/5 450 м
[Cb cap Ac und]
+1.5 +0.4 92 -6 -6 1005.0 1003.2 +1.8 0.4
18 22.06 СЗ 7
{11}
4000 м дымка {ливн. осадки} 10/10 240 м
[Sc]
+1.6 +0.5 92 -5 -5 1004.2 1002.4
21 22.06 З 8
{11}
4000 м дымка 10/10 270 м
[Sc]
+1.7 +0.9 94 -5 -5 1003.3 1001.5
00 23.06 СЗ 7
{11}
4000 м слаб. ливневой дождь 10/10 210 м
[Cb cap]
+1.5 +1.0 96 -5 -5 1001.5 999.7
03 23.06 З 10
{16}
4000 м дымка {ливн. осадки} 10/10 210 м
[St]
+1.8 +1.3 96 -6 -6 998.8 997.0 +1.4 1
06 23.06 СЗ 10
{14}
4000 м слаб. ливневой дождь 10/9 400 м
[Cb cap Ac und]
+2.2 +1.7 96 -5 -5 998.5 996.7
09 23.06 СЗ 7
{13}
4000 м дымка {ливн. осадки} 10/10 210 м
[St]
+1.8 +1.3 96 -5 -5 998.9 997.1
12 23.06 СЗ 5 2000 м дымка {ливн. осадки} 10/10 210 м
[St]
+1.7 +1.2 96 -4 -4 1000.1 998.3
15 23.06 СЗ 6 20 км 10/10 570 м
[Sc]
+1.8 +0.7 92 -4 -4 1001.0 999.2 +2.3 0.3
18 23.06 С 5 20 км 10/10 540 м
[Sc]
+0.8 -0.3 92 -5 -5 1001.9 1000.1
21 23.06 СЗ 6 20 км 10/10 570 м
[Sc]
+1.2 -0.8 87 -5 -5 1002.9 1001.1
00 24.06 С 4 20 км 9/9 570 м
[Sc]
+1.2 -0.8 87 -4 -4 1003.7 1001.9
03 24.06 СЗ 6 20 км 10/10 500 м
[Sc]
+1.1 -0.3 90 -5 -5 1004.2 1002.4 +0.8
06 24.06 СЗ 4
{10}
20 км {ливн. осадки} 10/8 570 м
[Cu Sc Ac und]
+0.6 -0.2 94 -5 -5 1004.7 1002.9 +0.6
09 24.06 СЗ 5 4000 м слаб. ливневой снег 10/4 300 м
[Cb cap Ac und]
+1.0 -0.1 92 -5 -4 1005.5 1003.7
12 24.06 З 5 20 км {ливн. осадки} 10/6 540 м
[Sc Ac und]
+1.4 0.0 90 -4 -4 1006.4 1004.6
15 24.06 З 7 20 км {ливн. осадки} 10/4 300 м
[Cu Sc Ac und]
+1.8 +1.0 94 -5 -5 1006.6 1004.8 +1.8 0.4
18 24.06 З 5 20 км {ливн. осадки} 10/8 750 м
[Sc Ac und]
+1.6 0.0 89 -4 -4 1006.9 1005.1
21 24.06 З 7 4000 м слаб. ливневой снег 10/5 450 м
[Cb cap Ac und]
+1.4 +0.6 94 -5 -5 1007.2 1005.4
00 25.06 З 5 20 км {ливн. осадки} 10/10 570 м
[Sc]
+1.0 -0.1 92 -5 -5 1006.9 1005.1
03 25.06 З 7
{10}
4000 м слаб. ливневой снег 10/10 270 м
[Cb cap]
+1.2 +0.7 96 -6 -6 1006.3 1004.5 +1.0 0.5
06 25.06 З 8
{11}
4000 м слаб. ливневой снег 10/10 210 м
[Cb cap]
+1.0 +0.5 96 -6 -6 1005.7 1003.9
09 25.06 З 6
{11}
4000 м слаб. снег 10/9 210 м
[Frnb As op]
+1.2 +0.7 96 -5 -5 1004.9 1003.1
12 25.06 З 7
{11}
4000 м слаб. дождь 10/9 210 м
[Frnb As op]
+1.7 +1.2 96 -5 -5 1004.5 1002.7
15 25.06 З 8
{11}
4000 м дымка {дождь} 10/9 300 м
[St Ac As]
+2.1 +1.3 94 -5 -5 1004.0 1002.2 +2.1 2
18 25.06 З 10
{14}
4000 м слаб. дождь 10/9 300 м
[Frnb As op]
+2.1 +1.6 96 -6 -6 1002.9 1001.1
21 25.06 З 11
{14}
4000 м в посл. час дождь 10/3 300 м
[St Ac As]
+2.3 +1.5 94 -6 -6 1003.1 1001.3
00 26.06 З 11
{14}
4000 м дымка {дождь} 10/8 270 м
[St Ac As]
+2.5 +1.7 94 -5 -5 1003.0 1001.2
03 26.06 З 10
{14}
4000 м дымка 10/8 210 м
[St Ac As]
+2.5 +2.0 96 -5 -5 1003.4 1001.6 +2.1 0.3

 

Местоположение метеостанции Малые Кармакулы (Архангельская область, Россия): широта 72.36 долгота 52.71 высота над уровнем моря 14 м.

В архиве по умолчанию представлена погода в Малых Кармакулах за последнюю неделю. Архивные данные за месяц целиком и за предыдущие месяцы, начиная с января 2011 года, Вы можете получить, выбрав интересующий диапазон дат из раскрывающегося списка и нажав кнопку "Ввод!".


*Определитесь, кто Вы:
робот инопланетянин человек

Внимание! Время в таблицах - всемирное. Для получения местного времени необходимо прибавить поправку, которая равна 3 ч.

Смотрите также архив погоды в соседних городах и на ближайших метеорологических станциях:

Погода в Имени Федорова (Ненецкий АО, Россия) (310 км)
Погода на Колгуевом Острове (Ненецкий АО, Россия) (341 км)
Погода в Ходоварихе (Ненецкий АО, Россия) (383 км)
Погода на Мысе Белый Нос (Ненецкий АО, Россия) (409 км)
Погода в Бугрино (Ненецкий АО, Россия) (415 км)
Погода в Амдерме (Ненецкий АО, Россия) (433 км)
Погода в Сенгейском Шаре (Ненецкий АО, Россия) (435 км)
Погода на Мысе Константиновском (Ненецкий АО, Россия) (436 км)
Погода в Варандее (Ненецкий АО, Россия) (440 км)
Погода в Нарьян-Маре (Ненецкий АО, Россия) (526 км)

Пояснения к столбцам:

Ветер - указаны скорость ветра в м/с - средняя за 10 мин, порывы в срок и между сроками (в фигурных скобках) и направление, откуда дует ветер: С - северный, СВ - северо-восточный, В - восточный, ЮВ - юго-восточный, Ю - южный, ЮЗ - юго-западный, З - западный, СЗ - северо-западный.
Видимость - горизонтальная дальность видимости в метрах или километрах. При видимости от 1 до 10 км при отсутствии осадков обычно наблюдается дымка, при ухудшении видимости до 1 км и менее - туман. В сухую погоду видимость может ухудшаться дымом, пылью или мглою.
Явления - указаны атмосферные явления, наблюдавшиеся в срок или в последний час перед сроком; фигурными скобками обозначены явления, наблюдавшиеся между сроками (за 1-3 часа до срока); квадратными скобками обозначены град или гололедные отложения с указанием их диаметра в мм.
Облачность - указаны через наклонную черту общая и нижняя облачность в баллах и высота нижней границы облаков в метрах; квадратными скобками обозначены формы облаков: Ci - перистые, Cs - перисто-слоистые, Cc - перисто-кучевые, Ac - высококучевые, As - высокослоистые, Sc - слоисто-кучевые, Ns - слоисто-дождевые, Cu - кучевые, Cb - кучево-дождевые. Подробнее классификацию облаков см. в Атласе облаков (PDF).
T - Температура воздуха - температура, измеренная на высоте 2 м над землей.
Td - Температура точки росы - температура, при понижении до которой содержащийся в воздухе водяной пар достигнет насыщения.
f - Относительная влажность воздуха - влажноcть воздуха, измеренная на высоте 2 м над землей.
Te - Эффективная температура - температура, которую ощущает одетый по сезону человек в тени. Характеристика душности погоды. При расчете учитывается влияние влажности воздуха и скорости ветра на теплоощущения человека.
Tes - Эффективная температура на солнце - температура, которую ощущает человек, с поправкой на солнечный нагрев. Характеристика знойности погоды. Зависит от высоты солнца над горизонтом, облачности и скорости ветра. Ночью, в пасмурную погоду, а также при ветре 12 м/с и более поправка равна нулю.
P - Атмосферное давление - приведенное к уровню моря атмосферное давление.
Po - Атмосферное давление - измеренное на уровне метеостанции атмосферное давление.
Tmin - Минимальная температура - минимум температуры воздуха на высоте 2 м над землей.
Tmax - Максимальная температура - максимум температуры воздуха на высоте 2 м над землей.
R - Количество осадков - Количество выпавших осадков за период времени, мм. При наведении курсора мыши на число - период времени, за который выпало указанное количество осадков.
R24 - Количество осадков - Количество выпавших осадков за 24 часа, мм.
S - Снежный покров - Высота снежного покрова, см. При наведении курсора мыши на число - состояние снежного покрова и степень покрытия местности в баллах.